TimeCDT,TemperatureF,Dew PointF,Humidity,Sea Level PressureIn,VisibilityMPH,Wind Direction,Wind SpeedMPH,Gust SpeedMPH,PrecipitationIn,Events,Conditions,WindDirDegrees,DateUTC
12:53 AM,70.0,69.1,97,30.08,3.0,Calm,Calm,-,N/A,,Clear,0,2013-06-21 05:53:00
1:53 AM,71.1,69.1,93,30.08,8.0,Calm,Calm,-,N/A,,Clear,0,2013-06-21 06:53:00
2:53 AM,71.1,69.1,93,30.07,10.0,Calm,Calm,-,N/A,,Clear,0,2013-06-21 07:53:00
3:53 AM,70.0,68.0,93,30.07,10.0,Calm,Calm,-,0.01,,Clear,0,2013-06-21 08:53:00
4:53 AM,71.1,69.1,93,30.08,10.0,Calm,Calm,-,N/A,,Clear,0,2013-06-21 09:53:00
5:53 AM,70.0,68.0,93,30.09,8.0,Calm,Calm,-,N/A,,Clear,0,2013-06-21 10:53:00
6:53 AM,72.0,69.1,91,30.10,10.0,Calm,Calm,-,N/A,,Clear,0,2013-06-21 11:53:00
7:53 AM,75.9,70.0,82,30.11,10.0,Calm,Calm,-,N/A,,Clear,0,2013-06-21 12:53:00
8:53 AM,81.0,72.0,74,30.12,10.0,NNE,5.8,-,N/A,,Clear,20,2013-06-21 13:53:00
9:53 AM,82.0,72.0,71,30.12,10.0,Variable,3.5,-,N/A,,Clear,0,2013-06-21 14:53:00
10:53 AM,84.0,72.0,67,30.13,10.0,East,4.6,-,N/A,,Clear,100,2013-06-21 15:53:00
11:53 AM,88.0,70.0,55,30.13,10.0,Variable,3.5,-,N/A,,Partly Cloudy,0,2013-06-21 16:53:00
12:53 PM,87.1,69.1,55,30.13,10.0,Variable,3.5,-,N/A,,Scattered Clouds,0,2013-06-21 17:53:00
1:53 PM,88.0,68.0,51,30.11,10.0,Calm,Calm,-,N/A,,Partly Cloudy,0,2013-06-21 18:53:00
2:53 PM,90.0,66.0,45,30.09,10.0,Variable,4.6,-,N/A,,Scattered Clouds,0,2013-06-21 19:53:00
3:53 PM,91.9,66.9,44,30.08,10.0,ENE,4.6,-,N/A,,Clear,60,2013-06-21 20:53:00
4:53 PM,90.0,68.0,48,30.06,10.0,East,3.5,-,N/A,,Mostly Cloudy,90,2013-06-21 21:53:00
5:53 PM,89.1,70.0,53,30.05,10.0,Calm,Calm,-,N/A,,Clear,0,2013-06-21 22:53:00
6:53 PM,87.1,69.1,55,30.06,10.0,Calm,Calm,-,N/A,,Clear,0,2013-06-21 23:53:00
7:53 PM,82.9,73.0,72,30.05,10.0,Calm,Calm,-,N/A,,Clear,0,2013-06-22 00:53:00
8:53 PM,80.1,72.0,76,30.06,10.0,SE,3.5,-,N/A,,Clear,140,2013-06-22 01:53:00
9:53 PM,77.0,72.0,84,30.08,9.0,Calm,Calm,-,N/A,,Clear,0,2013-06-22 02:53:00
10:53 PM,78.1,72.0,81,30.08,7.0,Calm,Calm,-,N/A,,Clear,0,2013-06-22 03:53:00
11:53 PM,75.0,72.0,90,30.08,6.0,SE,3.5,-,N/A,,Partly Cloudy,130,2013-06-22 04:53:00